Effective Sunday, March 17, 2024, the National Weather Service National Data Buoy Center will discontinue its Dial-A-Buoy Interactive Voice Response system. For more information, see Service Change Notice 24-06 (PDF).

Station BSBM4 - Big Sable Point, MI Image indicating link to RSS feed of recent meteorological observations for station BSBM4


Conditions at BSBM4 as of
(7:40 am EST)
1240 GMT on 02/23/2024:
     

Click on the graph icon in the table below to see a time series plot of the last five days of that observation.

5-day plot - Wind Direction Wind Direction (WDIR):NNE ( 20 deg true )
5-day plot - Wind Speed Wind Speed (WSPD): 12.0 kts
5-day plot - Wind Gust Wind Gust (GST): 18.1 kts
5-day plot - Atmospheric Pressure Atmospheric Pressure (PRES):29.68 in
5-day plot - Air Temperature Air Temperature (ATMP): 35.4 °F
5-day plot - Wind Chill Wind Chill (CHILL): 26.4 °F
5-day plot - Wind Speed at 10 Meters Wind Speed at 10 meters (WSPD10M): 11.7 kts
5-day plot - Wind Speed at 20 Meters Wind Speed at 20 meters (WSPD20M): 13.6 kts
5-day plot -  Wind Speed, Wind Gust and Atmospheric Pressure Combined plot of Wind Speed, Gust, and Air Pressure
Previous observations
TIME
(EST)
5-day plot - Wind Direction
WDIR
 
5-day plot - Wind Speed
WSPD
kts
5-day plot - Wind Gust
GST
kts
5-day plot - Wave Height
WVHT
ft
5-day plot - Dominant Wave Period
DPD
sec
5-day plot - Average Wave Period
APD
sec
5-day plot - Mean Wave Direction
MWD
 
5-day plot - Atmospheric Pressure
PRES
in
5-day plot - Pressure Tendency
PTDY
in
5-day plot - Air Temperature
ATMP
°F
5-day plot - Water Temperature
WTMP
°F
5-day plot - Dew Point
DEWP
°F
5-day plot - Salinity
SAL
psu
5-day plot - Visibility
VIS
nmi
5-day plot - Tide (above MLLW)
TIDE
ft
2024-02-23 07:30 amNNE 14.0 21.0----29.67- 35.8-----
2024-02-23 07:20 amNNE 13.0 20.0----29.67- 36.0-----
2024-02-23 07:10 amNNE 13.0 18.1----29.67- 36.1-----
2024-02-23 07:00 amNNE 14.0 21.0----29.66+0.04 36.3-----
2024-02-23 06:50 amNNE 15.0 22.0----29.66- 36.3-----
2024-02-23 06:40 amNNE 17.1 22.0----29.66- 36.3-----
2024-02-23 06:30 amNNE 15.0 19.0----29.66- 36.5-----
2024-02-23 06:20 amNNE 15.0 24.1----29.66- 36.5-----
2024-02-23 06:10 amNNE 17.1 24.1----29.65- 37.2-----
2024-02-23 06:00 am N 15.0 22.0----29.65+0.03 37.2-----
2024-02-23 05:50 am N 15.9 22.9----29.65- 37.8-----
2024-02-23 05:40 amNNW 18.1 22.9----29.65- 39.7-----
2024-02-23 05:30 am NW 15.9 20.0----29.64- 40.1-----
2024-02-23 05:20 am NW 18.1 20.0----29.63- 39.9-----
2024-02-23 05:10 am NW 15.9 18.1----29.63- 39.7-----
2024-02-23 05:00 am NW 14.0 15.9----29.63+0.01 39.6-----
2024-02-23 04:50 am NW 12.0 14.0----29.62- 39.4-----
2024-02-23 04:40 am NW 12.0 14.0----29.62- 39.6-----
2024-02-23 04:30 am NW 13.0 15.0----29.62- 39.7-----
2024-02-23 04:20 am NW 13.0 15.0----29.62- 39.6-----
2024-02-23 04:10 amWNW 8.9 9.9----29.62- 39.0-----
2024-02-23 04:00 amWNW 8.9 9.9----29.62-0.01 39.0-----
2024-02-23 03:50 am NW 8.0 8.9----29.62- 38.8-----
2024-02-23 03:40 am NW 7.0 8.0----29.62- 38.3-----
2024-02-23 03:30 am NW 7.0 7.0----29.62- 37.8-----
2024-02-23 03:20 am NW 5.1 6.0----29.62- 37.8-----
2024-02-23 03:10 amNNW 5.1 5.1----29.62- 37.8-----
2024-02-23 03:00 amNNW 5.1 6.0----29.62+0.00 37.8-----
2024-02-23 02:50 am N 2.9 4.1----29.62- 37.6-----
2024-02-23 02:40 am N 4.1 6.0----29.63- 38.1-----
2024-02-23 02:30 am N 4.1 6.0----29.63- 38.3-----
2024-02-23 02:20 amNNE 4.1 7.0----29.63- 38.5-----
2024-02-23 02:10 am N 6.0 8.0----29.63- 38.8-----
2024-02-23 02:00 am N 7.0 8.9----29.62-0.01 39.2-----
2024-02-23 01:50 am N 7.0 8.9----29.62- 39.6-----
2024-02-23 01:40 am N 7.0 8.9----29.62- 39.6-----
2024-02-23 01:30 am N 6.0 8.0----29.62- 39.9-----
2024-02-23 01:20 am N 6.0 8.9----29.62- 39.9-----
2024-02-23 01:10 am N 7.0 9.9----29.62- 40.5-----
2024-02-23 01:00 am N 8.9 12.0----29.63+0.00 41.0-----
2024-02-23 12:50 amNNW 11.1 14.0----29.62- 41.2-----
2024-02-23 12:40 amNNW 12.0 15.9----29.62- 41.4-----
2024-02-23 12:30 am NW 14.0 15.9----29.62- 41.5-----
2024-02-23 12:20 am NW 8.9 11.1----29.62- 40.8-----
2024-02-23 12:10 am W 4.1 8.9----29.62- 41.0-----
2024-02-23 12:00 am SW 7.0 8.9----29.62-0.02 40.8-----
2024-02-22 11:50 pmSSW 7.0 8.9----29.62- 39.2-----
2024-02-22 11:40 pm S 6.0 8.0----29.62- 39.0-----
2024-02-22 11:30 pm S 5.1 8.9----29.62- 38.3-----
2024-02-22 11:20 pm S 5.1 8.0----29.62- 38.3-----
2024-02-22 11:10 pm S 6.0 8.0----29.63- 38.5-----
2024-02-22 11:00 pm S 5.1 8.0----29.63-0.02 38.3-----
2024-02-22 10:50 pm S 5.1 8.9----29.63- 38.5-----
2024-02-22 10:40 pm S 7.0 9.9----29.63- 38.7-----
2024-02-22 10:30 pm S 8.0 11.1----29.62- 38.7-----
2024-02-22 10:20 pm S 8.9 11.1----29.63- 38.7-----
2024-02-22 10:10 pm S 8.0 12.0----29.63- 39.0-----
2024-02-22 10:00 pm S 8.0 12.0----29.63-0.03 38.5-----
2024-02-22 09:50 pm S 8.9 12.0----29.63- 38.5-----
2024-02-22 09:40 pm S 7.0 12.0----29.63- 38.3-----
2024-02-22 09:30 pm S 8.9 12.0----29.63- 38.1-----
2024-02-22 09:20 pm S 8.9 12.0----29.63- 38.3-----
2024-02-22 09:10 pm S 8.9 13.0----29.63- 38.8-----
2024-02-22 09:00 pm S 9.9 13.0----29.64-0.02 39.4-----
2024-02-22 08:50 pm S 9.9 13.0----29.63- 39.4-----
2024-02-22 08:40 pm S 11.1 13.0----29.64- 39.4-----
2024-02-22 08:30 pm S 9.9 13.0----29.64- 39.6-----
2024-02-22 08:20 pm S 8.0 11.1----29.64- 39.7-----
2024-02-22 08:10 pm S 8.0 11.1----29.65- 39.6-----
2024-02-22 08:00 pm S 8.0 14.0----29.65-0.02 39.9-----
2024-02-22 07:50 pm S 8.9 12.0----29.66- 39.7-----
2024-02-22 07:40 pm S 8.9 12.0----29.65- 39.4-----
2024-02-22 07:30 pm S 8.9 13.0----29.66- 39.2-----
2024-02-22 07:20 pm S 8.9 11.1----29.66- 39.2-----
2024-02-22 07:10 pm S 8.9 12.0----29.66- 39.2-----
2024-02-22 07:00 pm S 8.9 11.1----29.66-0.03 39.2-----
2024-02-22 06:50 pm S 8.9 11.1----29.66- 39.2-----
2024-02-22 06:40 pm S 7.0 9.9----29.66- 39.2-----
2024-02-22 06:30 pm S 7.0 8.9----29.66- 39.7-----
2024-02-22 06:20 pm S 7.0 8.9----29.66- 40.6-----
2024-02-22 06:10 pm S 6.0 8.9----29.66- 41.7-----
2024-02-22 06:00 pm S 7.0 8.9----29.66-0.05 42.4-----
2024-02-22 05:50 pm S 6.0 8.0----29.66- 43.2-----
2024-02-22 05:40 pm S 5.1 8.0----29.67- 43.2-----
2024-02-22 05:30 pm S 5.1 7.0----29.67- 43.0-----
2024-02-22 05:20 pm S 4.1 7.0----29.67- 44.2-----
2024-02-22 05:10 pm S 4.1 6.0----29.67- 46.2-----
2024-02-22 05:00 pm S 4.1 6.0----29.67-0.05 46.9-----
2024-02-22 04:50 pm S 4.1 6.0----29.67- 46.8-----
2024-02-22 04:40 pm S 4.1 5.1----29.68- 46.2-----
2024-02-22 04:30 pm S 4.1 6.0----29.68- 45.5-----
2024-02-22 04:20 pm S 4.1 6.0----29.68- 45.7-----
2024-02-22 04:10 pm S 4.1 5.1----29.69- 45.1-----
2024-02-22 04:00 pm S 2.9 4.1----29.69-0.07 44.4-----
2024-02-22 03:50 pmSSW 2.9 4.1----29.69- 43.2-----
2024-02-22 03:40 pmSSW 2.9 4.1----29.70- 43.3-----
2024-02-22 03:30 pmSSW 1.9 2.9----29.70- 43.5-----
2024-02-22 03:20 pmSSW 2.9 4.1----29.70- 42.8-----
2024-02-22 03:10 pm SW 1.9 2.9----29.71- 42.6-----
2024-02-22 03:00 pm SW 1.9 1.9----29.71-0.07 43.2-----
2024-02-22 02:50 pmWSW 1.9 2.9----29.71- 43.0-----
2024-02-22 02:40 pm SW 1.9 1.9----29.71- 43.3-----
2024-02-22 02:30 pmWSW 1.9 2.9----29.72- 43.2-----
2024-02-22 02:20 pm W 1.0 1.9----29.72- 43.7-----
2024-02-22 02:10 pm- 0.0 1.9----29.72- 44.2-----
2024-02-22 02:00 pmWSW 1.0 1.9----29.72-0.07 44.1-----
2024-02-22 01:50 pm W 1.9 2.9----29.73- 42.6-----
2024-02-22 01:40 pm NW 1.9 4.1----29.73- 43.0-----
2024-02-22 01:30 pmWNW 2.9 2.9----29.74- 42.3-----
2024-02-22 01:20 pmWNW 2.9 5.1----29.74- 41.7-----
2024-02-22 01:10 pm NW 5.1 7.0----29.75- 41.9-----
2024-02-22 01:00 pm W 6.0 7.0----29.76-0.04 41.7-----
2024-02-22 12:50 pmWSW 2.9 6.0----29.75- 41.4-----
2024-02-22 12:40 pm SW 6.0 6.0----29.76- 41.9-----
2024-02-22 12:30 pmSSW 5.1 6.0----29.76- 43.3-----
2024-02-22 12:20 pmSSW 1.9 2.9----29.77- 44.4-----
2024-02-22 12:10 pm- 0.0 2.9----29.78- 44.6-----
2024-02-22 12:00 pmNNW 1.9 2.9----29.78-0.02 42.4-----
2024-02-22 11:50 am NW 2.9 4.1----29.79- 40.5-----
2024-02-22 11:40 am NW 4.1 4.1----29.79- 41.7-----
2024-02-22 11:30 am W 1.9 1.9----29.79- 42.8-----
2024-02-22 11:20 amWSW 1.9 2.9----29.78- 41.7-----
2024-02-22 11:10 am SW 2.9 2.9----29.78- 40.6-----
2024-02-22 11:00 amSSW 1.9 2.9----29.79+0.01 40.6-----
2024-02-22 10:50 am S 1.9 1.9----29.79- 39.6-----
2024-02-22 10:40 am SW 1.9 2.9----29.79- 38.7-----
2024-02-22 10:30 am W 2.9 2.9----29.80- 38.1-----
2024-02-22 10:20 amWSW 2.9 4.1----29.80- 37.0-----
2024-02-22 10:10 am S 1.0 2.9----29.80- 38.8-----
2024-02-22 10:00 am SW 1.9 1.9----29.80+0.01 37.4-----
2024-02-22 09:50 am SW 1.9 1.9----29.80- 37.2-----
2024-02-22 09:40 am W 1.9 2.9----29.80- 37.4-----
2024-02-22 09:30 am NW 1.9 1.9----29.80- 38.3-----
2024-02-22 09:20 amNNW 1.0 1.9----29.80- 41.0-----
2024-02-22 09:10 am- 0.0 1.9----29.80- 40.3-----
2024-02-22 09:00 am SE 1.9 2.9----29.80+0.01 38.1-----
2024-02-22 08:50 am SE 1.0 2.9----29.79- 37.8-----
2024-02-22 08:40 am SE 1.0 4.1----29.79- 37.0-----
2024-02-22 08:30 am SE 4.1 6.0----29.79- 34.9-----
2024-02-22 08:20 am SE 4.1 7.0----29.79- 33.3-----
2024-02-22 08:10 amSSE 6.0 7.0----29.78- 32.0-----
2024-02-22 08:00 am SE 5.1 6.0----29.78-0.01 30.7-----
2024-02-22 07:50 amSSE 2.9 5.1----29.79- 30.7-----